Location: Sternwarte-Kraichtal
(49.1689°N, 8.6996°E)
Time: 19:31:54
(UTC+02:00)

Vanguard 2 Rocket - Pass Details

Date: 02 June 2022
Orbit: 553 x 3323 km, 32.9° (Epoch: 02 July)

Event Time Altitude Azimuth Distance (km) Brightness Sun altitude
Rises 11:23:13 0° 210° (SSW) 6,624 11.4 54.1°
Reaches altitude 10° 11:28:12 10° 200° (SSW) 5,894 11.3 54.8°
Maximum altitude 11:43:23 30° 148° (SSE) 4,761 11.9 56.6°
Drops below altitude 10° 11:58:29 10° 97° (E) 5,904 11.5 58.3°
Sets 12:03:24 0° 88° (E) 6,642 11.5 58.8°
